This demonstration page uses our WeatherBlox Daily Observations layout. Learn more.

Left ArrowRight Arrow

39.51506, -84.39828

Hourly Observations for January 13, 2015

Temp ( °F °C ) Dew Point ( °F °C ) Humidity (%) Winds ( mph kmh ) Pressure ( in mb ) Visibility ( mi km ) Precip ( " mm )
12:15 am 00:15 Cloudy 27 -2.8 17 -8.1 67 67 NE 16 26 30.59 1036 10 16 0.00 0.00
12:35 am 00:35 Cloudy 27 -2.8 16 -9 63 63 NNE 10 17 30.59 1036 10 16 0.00 0.00
12:55 am 00:55 Cloudy 27 -2.8 16 -9 63 63 NNE 15 24 30.59 1036 10 16 0.00 0.00
1:15 am 01:15 Cloudy 27 -2.8 16 -8.8 64 64 NE 12 19 30.59 1036 10 16 0.00 0.00
1:35 am 01:35 Cloudy 27 -2.8 16 -8.7 64 64 NNE 8 13 30.59 1036 10 16 0.00 0.00
1:55 am 01:55 Cloudy 25 -4.1 15 -9.6 66 66 NNE 13 20 30.59 1036 10 16 0.00 0.00
2:15 am 02:15 Cloudy 24 -4.2 15 -9.3 68 68 NNE 10 17 30.62 1037 10 16 0.00 0.00
2:35 am 02:35 Cloudy 25 -3.9 15 -9.2 67 67 NE 12 19 30.62 1037 10 16 0.00 0.00
2:55 am 02:55 Cloudy 25 -4.1 15 -9.5 66 66 NE 13 20 30.62 1037 10 16 0.00 0.00
3:15 am 03:15 Cloudy 24 -4.2 15 -9.6 66 66 NE 14 22 30.62 1037 10 16 0.00 0.00
3:35 am 03:35 Cloudy 24 -4.2 15 -9.3 68 68 NE 13 20 30.62 1037 10 16 0.00 0.00
3:55 am 03:55 Cloudy 24 -4.2 15 -9.3 68 68 NE 12 19 30.65 1038 10 16 0.00 0.00
4:15 am 04:15 Cloudy 23 -4.9 14 -9.9 68 68 NNE 12 19 30.65 1038 10 16 0.00 0.00
4:35 am 04:35 Cloudy 23 -5 14 -9.8 69 69 NNE 9 15 30.65 1038 10 16 0.00 0.00
4:55 am 04:55 Cloudy 23 -5 15 -9.7 70 70 NNE 10 17 30.65 1038 10 16 0.00 0.00
5:15 am 05:15 Cloudy 23 -5.1 14 -9.8 70 70 NNE 9 15 30.65 1038 10 16 0.00 0.00
5:35 am 05:35 Cloudy with Light Snow 23 -5.1 15 -9.6 71 71 NNE 12 19 30.65 1038 10 16 0.00 0.00
5:55 am 05:55 Cloudy with Light Snow 23 -5.2 15 -9.6 72 72 NNE 12 19 30.65 1038 10 16 0.00 0.00
6:15 am 06:15 Cloudy with Light Snow 22 -5.6 15 -9.7 73 73 NNE 15 24 30.65 1038 10 16 0.00 0.00
6:35 am 06:35 Cloudy with Light Snow 22 -5.8 14 -10 73 73 NNE 12 19 30.68 1039 10 16 0.00 0.00
6:55 am 06:55 Cloudy 21 -6.3 13 -10.5 72 72 NNE 10 17 30.68 1039 10 16 0.00 0.00
7:15 am 07:15 Mostly Cloudy 20 -6.7 13 -10.6 74 74 NNE 9 15 30.68 1039 10 16 0.00 0.00
7:35 am 07:35 Mostly Cloudy 19 -7 13 -10.6 76 76 NNE 8 13 30.68 1039 10 16 0.00 0.00
7:55 am 07:55 Cloudy 19 -7 13 -10.7 75 75 NE 7 11 30.68 1039 10 16 0.00 0.00
8:20 am 08:20 Partly Cloudy 19 -7 13 -10.7 75 75 NE 7 11 30.68 1039 10 16 0.00 0.00
8:35 am 08:35 Sunny 19 -7 13 -10.7 75 75 NNE 8 13 30.68 1039 10 16 0.00 0.00
8:55 am 08:55 Sunny 20 -6.7 13 -10.6 74 74 NE 10 17 30.68 1039 10 16 0.00 0.00
9:15 am 09:15 Sunny 21 -6.3 13 -10.7 71 71 NE 10 17 30.71 1040 10 16 0.00 0.00
9:35 am 09:35 Sunny 22 -5.8 13 -10.8 68 68 NE 13 20 30.71 1040 10 16 0.00 0.00
9:55 am 09:55 Sunny 22 -5.6 12 -10.9 67 67 NE 10 17 30.71 1040 10 16 0.00 0.00
10:15 am 10:15 Sunny 23 -5.1 13 -10.8 65 65 NE 13 20 30.71 1040 10 16 0.00 0.00
10:35 am 10:35 Sunny 23 -4.8 12 -11 62 62 ENE 13 20 30.71 1040 10 16 0.00 0.00
10:55 am 10:55 Sunny 24 -4.2 12 -11.1 59 59 NE 16 26 30.68 1039 10 16 0.00 0.00
11:15 am 11:15 Sunny 24 -4.2 11 -11.7 56 56 NE 13 20 30.68 1039 10 16 0.00 0.00
11:35 am 11:35 Sunny 25 -4.1 10 -12 55 55 ENE 14 22 30.68 1039 10 16 0.00 0.00
11:55 am 11:55 Sunny 25 -4 10 -12.4 52 52 NE 13 20 30.65 1038 10 16 0.00 0.00
12:15 pm 12:15 Sunny 26 -3.2 11 -11.7 52 52 NE 10 17 30.65 1038 10 16 0.00 0.00
12:35 pm 12:35 Sunny 27 -2.8 11 -11.5 52 52 ENE 10 17 30.65 1038 10 16 0.00 0.00
12:55 pm 12:55 Sunny 27 -2.8 10 -12 50 50 E 10 17 30.62 1037 10 16 0.00 0.00
1:15 pm 13:15 Sunny 29 -1.8 12 -10.9 50 50 E 8 13 30.59 1036 10 16 0.00 0.00
1:35 pm 13:35 Sunny 27 -2.8 10 -12 50 50 NE 10 17 30.62 1037 10 16 0.00 0.00
1:55 pm 13:55 Sunny 29 -1.7 12 -11 49 49 NE 10 17 30.59 1036 10 16 0.00 0.00
2:15 pm 14:15 Sunny 28 -2.5 11 -11.5 50 50 NE 10 17 30.56 1035 10 16 0.00 0.00
2:35 pm 14:35 Sunny 29 -1.5 14 -10.2 52 52 NE 9 15 30.56 1035 10 16 0.00 0.00
2:55 pm 14:55 Sunny 28 -2 12 -11.2 50 50 ENE 10 17 30.56 1035 10 16 0.00 0.00
3:15 pm 15:15 Sunny 28 -2 11 -11.4 49 49 ENE 7 11 30.56 1035 10 16 0.00 0.00
3:35 pm 15:35 Sunny 27 -2.8 11 -11.6 51 51 NE 10 17 30.59 1036 10 16 0.00 0.00
3:55 pm 15:55 Sunny 27 -2.8 12 -11.1 53 53 NE 8 13 30.59 1036 10 16 0.00 0.00
4:15 pm 16:15 Sunny 27 -2.8 12 -11.1 53 53 ENE 10 17 30.59 1036 10 16 0.00 0.00
4:35 pm 16:35 Sunny 27 -2.8 13 -10.8 54 54 ENE 9 15 30.59 1036 10 16 0.00 0.00
4:55 pm 16:55 Sunny 27 -3 13 -10.5 57 57 ENE 8 13 30.56 1035 10 16 0.00 0.00
5:15 pm 17:15 Sunny 24 -4.2 12 -11.3 58 58 ENE 8 13 30.56 1035 10 16 0.00 0.00
5:35 pm 17:35 Sunny 24 -4.2 13 -10.6 61 61 NE 7 11 30.56 1035 10 16 0.00 0.00
5:55 pm 17:55 Clear 23 -5 12 -11.3 62 62 NE 8 13 30.56 1035 10 16 0.00 0.00
6:15 pm 18:15 Clear 23 -5.2 11 -11.4 62 62 NE 8 13 30.59 1036 10 16 0.00 0.00
6:35 pm 18:35 Clear 22 -5.5 11 -11.5 63 63 NE 7 11 30.56 1035 10 16 0.00 0.00
6:55 pm 18:55 Clear 22 -5.6 11 -11.4 64 64 NE 6 9 30.56 1035 10 16 0.00 0.00
7:15 pm 19:15 Clear 21 -6.2 12 -11.3 68 68 NNE 6 9 30.56 1035 10 16 0.00 0.00
7:35 pm 19:35 Clear 21 -6.3 12 -11.1 69 69 NNE 6 9 30.56 1035 10 16 0.00 0.00
7:55 pm 19:55 Clear 20 -6.7 12 -11.3 70 70 NNE 7 11 30.56 1035 10 16 0.00 0.00
8:15 pm 20:15 Clear 19 -7 11 -11.5 71 71 NNE 7 11 30.56 1035 10 16 0.00 0.00
8:35 pm 20:35 Mostly Cloudy 19 -7 11 -11.5 71 71 NNE 7 11 30.56 1035 10 16 0.00 0.00
8:55 pm 20:55 Partly Cloudy 19 -7 12 -11.2 72 72 NNE 8 13 30.56 1035 10 16 0.00 0.00
9:15 pm 21:15 Clear 19 -7 12 -11.1 73 73 NNE 7 11 30.53 1034 10 16 0.00 0.00
9:35 pm 21:35 Clear 18 -8 10 -12 73 73 N 5 7 30.53 1034 10 16 0.00 0.00
9:55 pm 21:55 Mostly Cloudy 17 -8.3 10 -12.1 74 74 NNE 5 7 30.53 1034 10 16 0.00 0.00
10:15 pm 22:15 Partly Cloudy 17 -8.5 10 -12.4 74 74 N 6 9 30.53 1034 10 16 0.00 0.00
10:35 pm 22:35 Clear 17 -8.5 10 -12 76 76 N 5 7 30.50 1033 10 16 0.00 0.00
10:55 pm 22:55 Clear 16 -9.1 10 -12.5 77 77 N 5 7 30.50 1033 10 16 0.00 0.00
11:15 pm 23:15 Clear 14 -9.8 9 -13 78 78 N 5 7 30.50 1033 10 16 0.00 0.00
11:35 pm 23:35 Clear 14 -9.8 9 -13 78 78 NNE 5 7 30.50 1033 10 16 0.00 0.00
11:55 pm 23:55 Clear 14 -9.8 9 -13 78 78 Calm 30.50 1033 10 16 0.00 0.00

Powered by AerisWeather